Location: ????????
(56.0167°N, 38.0333°E)
Time: 03:51:17
(UTC+00:00)

Spot 2 Rocket - Pass Details

Date: 19 May 2025
Orbit: 753 x 766 km, 98.3° (Epoch: 15 June)

Event Time Altitude Azimuth Distance (km) Brightness Sun altitude
Exits shadow 18:37:37 - 173° (S) 2,936 6.0 -6.3°
Reaches altitude 10° 18:39:16 10° 176° (S) 2,278 5.5 -6.4°
Maximum altitude 18:44:14 62° 258° (WSW) 850 3.9 -6.9°
Drops below altitude 10° 18:49:16 10° 339° (NNW) 2,300 7.5 -7.3°
Sets 18:51:37 0° 343° (NNW) 3,232 8.4 -7.5°
